Time,TemperatureF,DewpointF,PressureIn,WindDirection,WindDirectionDegrees,WindSpeedMPH,WindSpeedGustMPH,Humidity,HourlyPrecipIn,Conditions,Clouds,dailyrainin,SolarRadiationWatts/m^2,SoftwareType,DateUTC
2013-05-22 00:00:00,58.0,57.0,-100.00,SSW,202,0.0,-999.0,94,-99.99,,,-99.99,0.000000,,2013-05-22 04:00:00,
2013-05-22 00:33:00,58.0,57.0,-100.00,SSW,202,0.0,-999.0,94,-99.99,,,-99.99,0.000000,,2013-05-22 04:33:00,
2013-05-22 00:43:00,58.0,57.0,-100.00,SSW,202,0.0,-999.0,94,-99.99,,,-99.99,0.000000,,2013-05-22 04:43:00,
2013-05-22 00:53:00,58.0,57.0,-100.00,SSW,202,0.0,-999.0,94,-99.99,,,-99.99,0.000000,,2013-05-22 04:53:00,
2013-05-22 01:00:00,56.0,55.0,-100.00,WSW,247,0.0,-999.0,94,-99.99,,,-99.99,0.000000,,2013-05-22 05:00:00,
2013-05-22 01:32:00,56.0,55.0,-100.00,WSW,247,0.0,-999.0,94,-99.99,,,-99.99,0.000000,,2013-05-22 05:32:00,
2013-05-22 01:42:00,56.0,55.0,-100.00,WSW,247,0.0,-999.0,94,-99.99,,,-99.99,0.000000,,2013-05-22 05:42:00,
2013-05-22 01:52:00,56.0,55.0,-100.00,WSW,247,0.0,-999.0,94,-99.99,,,-99.99,0.000000,,2013-05-22 05:52:00,
2013-05-22 02:00:00,55.0,53.0,-100.00,WSW,247,0.0,-999.0,94,-99.99,,,-99.99,0.000000,,2013-05-22 06:00:00,
2013-05-22 02:32:00,55.0,53.0,-100.00,WSW,247,0.0,-999.0,94,-99.99,,,-99.99,0.000000,,2013-05-22 06:32:00,
2013-05-22 02:42:00,55.0,53.0,-100.00,WSW,247,0.0,-999.0,94,-99.99,,,-99.99,0.000000,,2013-05-22 06:42:00,
2013-05-22 02:52:00,55.0,53.0,-100.00,WSW,247,0.0,-999.0,94,-99.99,,,-99.99,0.000000,,2013-05-22 06:52:00,
2013-05-22 03:00:00,54.0,53.0,-100.00,SSE,157,0.0,-999.0,95,-99.99,,,-99.99,0.000000,,2013-05-22 07:00:00,
2013-05-22 03:32:00,54.0,53.0,-100.00,SSE,157,0.0,-999.0,95,-99.99,,,-99.99,0.000000,,2013-05-22 07:32:00,
2013-05-22 03:42:00,54.0,53.0,-100.00,SSE,157,0.0,-999.0,95,-99.99,,,-99.99,0.000000,,2013-05-22 07:42:00,
2013-05-22 03:53:00,54.0,53.0,-100.00,SSE,157,0.0,-999.0,95,-99.99,,,-99.99,0.000000,,2013-05-22 07:53:00,
2013-05-22 04:00:00,54.0,53.0,-100.00,SSW,202,0.0,-999.0,95,-99.99,,,-99.99,0.000000,,2013-05-22 08:00:00,
2013-05-22 04:32:00,54.0,53.0,-100.00,SSW,202,0.0,-999.0,95,-99.99,,,-99.99,0.000000,,2013-05-22 08:32:00,
2013-05-22 04:42:00,54.0,53.0,-100.00,SSW,202,0.0,-999.0,95,-99.99,,,-99.99,0.000000,,2013-05-22 08:42:00,
2013-05-22 04:52:00,54.0,53.0,-100.00,SSW,202,0.0,-999.0,95,-99.99,,,-99.99,0.000000,,2013-05-22 08:52:00,
2013-05-22 05:00:00,53.0,52.0,-100.00,SSE,157,0.0,-999.0,95,0.01,,,-99.99,1.160000,,2013-05-22 09:00:00,
2013-05-22 05:33:00,53.0,52.0,-100.00,SSE,157,0.0,-999.0,95,0.01,,,-99.99,1.160000,,2013-05-22 09:33:00,
2013-05-22 05:43:00,53.0,52.0,-100.00,SSE,157,0.0,-999.0,95,0.01,,,-99.99,1.160000,,2013-05-22 09:43:00,
2013-05-22 05:53:00,53.0,52.0,-100.00,SSE,157,0.0,-999.0,95,0.01,,,-99.99,1.160000,,2013-05-22 09:53:00,
2013-05-22 06:00:00,54.0,52.0,-100.00,East,90,0.0,-999.0,95,-99.99,,,-99.99,1.160000,,2013-05-22 10:00:00,
2013-05-22 06:33:00,54.0,52.0,-100.00,East,90,0.0,-999.0,95,-99.99,,,-99.99,1.160000,,2013-05-22 10:33:00,
2013-05-22 06:42:00,54.0,52.0,-100.00,East,90,0.0,-999.0,95,-99.99,,,-99.99,1.160000,,2013-05-22 10:42:00,
2013-05-22 06:53:00,54.0,52.0,-100.00,East,90,0.0,-999.0,95,-99.99,,,-99.99,1.160000,,2013-05-22 10:53:00,
2013-05-22 07:00:00,54.0,53.0,-100.00,SSE,157,0.0,-999.0,95,-99.99,,,-99.99,10.440000,,2013-05-22 11:00:00,
2013-05-22 07:32:00,54.0,53.0,-100.00,SSE,157,0.0,-999.0,95,-99.99,,,-99.99,10.440000,,2013-05-22 11:32:00,
2013-05-22 07:42:00,54.0,53.0,-100.00,SSE,157,0.0,-999.0,95,-99.99,,,-99.99,10.440000,,2013-05-22 11:42:00,
2013-05-22 07:53:00,54.0,53.0,-100.00,SSE,157,0.0,-999.0,95,-99.99,,,-99.99,10.440000,,2013-05-22 11:53:00,
2013-05-22 08:00:00,55.0,54.0,-100.00,SW,225,0.0,-999.0,95,-99.99,,,-99.99,32.480000,,2013-05-22 12:00:00,
2013-05-22 08:32:00,55.0,54.0,-100.00,SW,225,0.0,-999.0,95,-99.99,,,-99.99,32.480000,,2013-05-22 12:32:00,
2013-05-22 08:42:00,55.0,54.0,-100.00,SW,225,0.0,-999.0,95,-99.99,,,-99.99,32.480000,,2013-05-22 12:42:00,
2013-05-22 08:52:00,55.0,54.0,-100.00,SW,225,0.0,-999.0,95,-99.99,,,-99.99,32.480000,,2013-05-22 12:52:00,
2013-05-22 10:00:00,59.0,57.0,-100.00,ENE,67,1.0,-999.0,95,-99.99,,,-99.99,134.559998,,2013-05-22 14:00:00,
2013-05-22 10:32:00,59.0,57.0,-100.00,ENE,67,1.0,-999.0,95,-99.99,,,-99.99,134.559998,,2013-05-22 14:32:00,
2013-05-22 10:42:00,59.0,57.0,-100.00,ENE,67,1.0,-999.0,95,-99.99,,,-99.99,134.559998,,2013-05-22 14:42:00,
2013-05-22 10:53:00,59.0,57.0,-100.00,ENE,67,1.0,-999.0,95,-99.99,,,-99.99,134.559998,,2013-05-22 14:53:00,
2013-05-22 11:00:00,59.0,57.0,-100.00,SSW,202,1.0,-999.0,95,-99.99,,,-99.99,307.399994,,2013-05-22 15:00:00,
2013-05-22 11:33:00,59.0,57.0,-100.00,SSW,202,1.0,-999.0,95,-99.99,,,-99.99,307.399994,,2013-05-22 15:33:00,
2013-05-22 11:43:00,59.0,57.0,-100.00,SSW,202,1.0,-999.0,95,-99.99,,,-99.99,307.399994,,2013-05-22 15:43:00,
2013-05-22 11:53:00,59.0,57.0,-100.00,SSW,202,1.0,-999.0,95,-99.99,,,-99.99,307.399994,,2013-05-22 15:53:00,
2013-05-22 12:00:00,60.0,58.0,-100.00,SW,225,1.0,-999.0,95,-99.99,,,-99.99,307.399994,,2013-05-22 16:00:00,
2013-05-22 12:33:00,60.0,58.0,-100.00,SW,225,1.0,-999.0,95,-99.99,,,-99.99,307.399994,,2013-05-22 16:33:00,
2013-05-22 12:42:00,60.0,58.0,-100.00,SW,225,1.0,-999.0,95,-99.99,,,-99.99,307.399994,,2013-05-22 16:42:00,
2013-05-22 12:53:00,60.0,58.0,-100.00,SW,225,1.0,-999.0,95,-99.99,,,-99.99,307.399994,,2013-05-22 16:53:00,
2013-05-22 13:00:00,62.0,59.0,-100.00,SSE,157,1.0,-999.0,91,-99.99,,,-99.99,270.279999,,2013-05-22 17:00:00,
2013-05-22 13:33:00,62.0,59.0,-100.00,SSE,157,1.0,-999.0,91,-99.99,,,-99.99,270.279999,,2013-05-22 17:33:00,
2013-05-22 13:42:00,62.0,59.0,-100.00,SSE,157,1.0,-999.0,91,-99.99,,,-99.99,270.279999,,2013-05-22 17:42:00,
2013-05-22 13:54:00,62.0,59.0,-100.00,SSE,157,1.0,-999.0,91,-99.99,,,-99.99,270.279999,,2013-05-22 17:54:00,
2013-05-22 14:00:00,61.0,58.0,-100.00,SSE,157,2.0,-999.0,89,-99.99,,,-99.99,150.800003,,2013-05-22 18:00:00,
2013-05-22 14:34:00,61.0,58.0,-100.00,SSE,157,2.0,-999.0,89,-99.99,,,-99.99,150.800003,,2013-05-22 18:34:00,
2013-05-22 14:42:00,61.0,58.0,-100.00,SSE,157,2.0,-999.0,89,-99.99,,,-99.99,150.800003,,2013-05-22 18:42:00,
2013-05-22 14:52:00,61.0,58.0,-100.00,SSE,157,2.0,-999.0,89,-99.99,,,-99.99,150.800003,,2013-05-22 18:52:00,
2013-05-22 15:00:00,57.0,54.0,-100.00,WSW,247,1.0,-999.0,90,-99.99,,,-99.99,146.160004,,2013-05-22 19:00:00,
2013-05-22 15:32:00,57.0,54.0,-100.00,WSW,247,1.0,-999.0,90,-99.99,,,-99.99,146.160004,,2013-05-22 19:32:00,
2013-05-22 15:42:00,57.0,54.0,-100.00,WSW,247,1.0,-999.0,90,-99.99,,,-99.99,146.160004,,2013-05-22 19:42:00,
2013-05-22 15:52:00,57.0,54.0,-100.00,WSW,247,1.0,-999.0,90,-99.99,,,-99.99,146.160004,,2013-05-22 19:52:00,
2013-05-22 16:00:00,58.0,55.0,-100.00,SSW,202,0.0,-999.0,91,-99.99,,,-99.99,97.440002,,2013-05-22 20:00:00,
2013-05-22 16:32:00,58.0,55.0,-100.00,SSW,202,0.0,-999.0,91,-99.99,,,-99.99,97.440002,,2013-05-22 20:32:00,
2013-05-22 16:42:00,58.0,55.0,-100.00,SSW,202,0.0,-999.0,91,-99.99,,,-99.99,97.440002,,2013-05-22 20:42:00,
2013-05-22 16:52:00,58.0,55.0,-100.00,SSW,202,0.0,-999.0,91,-99.99,,,-99.99,97.440002,,2013-05-22 20:52:00,
2013-05-22 17:00:00,60.0,58.0,-100.00,ENE,67,4.0,-999.0,93,0.04,,,-99.99,93.959999,,2013-05-22 21:00:00,
2013-05-22 17:33:00,60.0,58.0,-100.00,ENE,67,4.0,-999.0,93,0.04,,,-99.99,93.959999,,2013-05-22 21:33:00,
2013-05-22 17:42:00,60.0,58.0,-100.00,ENE,67,4.0,-999.0,93,0.04,,,-99.99,93.959999,,2013-05-22 21:42:00,
2013-05-22 17:53:00,60.0,58.0,-100.00,ENE,67,4.0,-999.0,93,0.04,,,-99.99,93.959999,,2013-05-22 21:53:00,
2013-05-22 19:00:00,57.0,55.0,-100.00,ENE,67,6.0,-999.0,93,0.07,,,-99.99,41.759998,,2013-05-22 23:00:00,
2013-05-22 19:32:00,57.0,55.0,-100.00,ENE,67,6.0,-999.0,93,0.07,,,-99.99,41.759998,,2013-05-22 23:32:00,
2013-05-22 19:42:00,57.0,55.0,-100.00,ENE,67,6.0,-999.0,93,0.07,,,-99.99,41.759998,,2013-05-22 23:42:00,
2013-05-22 19:53:00,57.0,55.0,-100.00,ENE,67,6.0,-999.0,93,0.07,,,-99.99,41.759998,,2013-05-22 23:53:00,
2013-05-22 21:00:00,55.0,53.0,-100.00,ENE,67,7.0,-999.0,93,0.02,,,-99.99,13.920000,,2013-05-23 01:00:00,
2013-05-22 21:32:00,55.0,53.0,-100.00,ENE,67,7.0,-999.0,93,0.02,,,-99.99,13.920000,,2013-05-23 01:32:00,
2013-05-22 21:42:00,55.0,53.0,-100.00,ENE,67,7.0,-999.0,93,0.02,,,-99.99,13.920000,,2013-05-23 01:42:00,
2013-05-22 21:52:00,55.0,53.0,-100.00,ENE,67,7.0,-999.0,93,0.02,,,-99.99,13.920000,,2013-05-23 01:52:00,
2013-05-22 22:00:00,54.0,53.0,-100.00,ENE,67,7.0,-999.0,93,0.04,,,-99.99,0.000000,,2013-05-23 02:00:00,
2013-05-22 22:32:00,54.0,53.0,-100.00,ENE,67,7.0,-999.0,93,0.04,,,-99.99,0.000000,,2013-05-23 02:32:00,
2013-05-22 22:42:00,54.0,53.0,-100.00,ENE,67,7.0,-999.0,93,0.04,,,-99.99,0.000000,,2013-05-23 02:42:00,
2013-05-22 22:52:00,54.0,53.0,-100.00,ENE,67,7.0,-999.0,93,0.04,,,-99.99,0.000000,,2013-05-23 02:52:00,
2013-05-22 23:00:00,53.0,51.0,-100.00,ENE,67,8.0,-999.0,93,0.01,,,-99.99,0.000000,,2013-05-23 03:00:00,
2013-05-22 23:33:00,53.0,51.0,-100.00,ENE,67,8.0,-999.0,93,0.01,,,-99.99,0.000000,,2013-05-23 03:33:00,
2013-05-22 23:43:00,53.0,51.0,-100.00,ENE,67,8.0,-999.0,93,0.01,,,-99.99,0.000000,,2013-05-23 03:43:00,
2013-05-22 23:53:00,53.0,51.0,-100.00,ENE,67,8.0,-999.0,93,0.01,,,-99.99,0.000000,,2013-05-23 03:53:00,